ITY78 LIRF-LEBL

Flight info

Callsign ITY78
Flight time 1h 28m
Altitude 37000
Route ESINO DCT ABIDU DCT EPIKU/N0445F360 DCT GINOX DCT KIFMI DCT ELVOP DCT MUREN DCT CHELY DCT VERSO
Aircraft A320/M-SDE3FGHIRWY/LB1

Departure

Time 2026-05-05 03:59
Airport Rome–Fiumicino Leonardo da Vinci International Airport (LIRF)

Arrival

Time 2026-05-05 05:28
Airport Josep Tarradellas Barcelona-El Prat Airport (LEBL)
Time Latitude Longitude Altitude Speed Heading
2026-05-05 03:39 41.79768 12.24820 16 ft 0 kts 250°
2026-05-05 03:46 41.79773 12.24839 14 ft 4 kts 252°
2026-05-05 03:46 41.79780 12.24874 14 ft 4 kts 262°
2026-05-05 03:47 41.79780 12.24908 14 ft 4 kts 293°
2026-05-05 03:47 41.79770 12.24926 14 ft 0 kts 339°
2026-05-05 03:52 41.79800 12.24910 16 ft 8 kts 339°
2026-05-05 03:53 41.79857 12.24881 16 ft 8 kts 339°
2026-05-05 03:53 41.79903 12.24858 14 ft 6 kts 339°
2026-05-05 03:53 41.79937 12.24841 14 ft 5 kts 339°
2026-05-05 03:53 41.79961 12.24829 15 ft 3 kts 340°
2026-05-05 03:54 41.80005 12.24807 14 ft 11 kts 340°
2026-05-05 03:54 41.80075 12.24778 14 ft 11 kts 347°
2026-05-05 03:54 41.80150 12.24776 14 ft 11 kts 12°
2026-05-05 03:54 41.80204 12.24862 14 ft 14 kts 75°
2026-05-05 03:55 41.80207 12.25003 14 ft 16 kts 90°
2026-05-05 03:55 41.80229 12.25155 14 ft 18 kts 69°
2026-05-05 03:55 41.80275 12.25318 16 ft 19 kts 69°
2026-05-05 03:55 41.80323 12.25489 17 ft 20 kts 69°
2026-05-05 03:56 41.80375 12.25673 17 ft 22 kts 69°
2026-05-05 03:56 41.80431 12.25872 17 ft 24 kts 71°
2026-05-05 03:56 41.80477 12.26054 15 ft 21 kts 71°
2026-05-05 03:56 41.80531 12.26242 16 ft 22 kts 69°
2026-05-05 03:57 41.80587 12.26446 16 ft 24 kts 70°
2026-05-05 03:57 41.80644 12.26654 15 ft 22 kts 70°
2026-05-05 03:57 41.80695 12.26842 15 ft 18 kts 70°
2026-05-05 03:57 41.80731 12.26975 13 ft 15 kts 70°
2026-05-05 03:58 41.80809 12.27043 15 ft 16 kts 340°
2026-05-05 03:58 41.80914 12.26987 13 ft 17 kts 341°
2026-05-05 03:58 41.80945 12.26877 14 ft 16 kts 249°
2026-05-05 03:58 41.80887 12.26665 15 ft 50 kts 251°
2026-05-05 03:59 41.80676 12.25910 17 ft 120 kts 249°
2026-05-05 03:59 41.80316 12.24633 98 ft 163 kts 247°
2026-05-05 03:59 41.79878 12.23213 690 ft 167 kts 244°
2026-05-05 03:59 41.79388 12.21764 1345 ft 174 kts 242°
2026-05-05 04:00 41.78886 12.20258 1999 ft 183 kts 253°
2026-05-05 04:00 41.78748 12.18465 2385 ft 205 kts 269°
2026-05-05 04:00 41.78779 12.16519 2968 ft 212 kts 266°
2026-05-05 04:00 41.78422 12.14618 3734 ft 212 kts 239°
2026-05-05 04:01 41.77487 12.13102 4465 ft 212 kts 224°
2026-05-05 04:01 41.76428 12.11722 5220 ft 213 kts 221°
2026-05-05 04:01 41.75343 12.10360 5971 ft 214 kts 220°
2026-05-05 04:01 41.74242 12.08993 6706 ft 216 kts 220°
2026-05-05 04:02 41.73135 12.07622 7450 ft 217 kts 220°
2026-05-05 04:02 41.72026 12.06251 8181 ft 217 kts 221°
2026-05-05 04:02 41.70839 12.05005 8896 ft 217 kts 206°
2026-05-05 04:02 41.69387 12.04380 9433 ft 229 kts 186°
2026-05-05 04:03 41.67700 12.04339 9727 ft 255 kts 181°
2026-05-05 04:03 41.65853 12.04346 10118 ft 274 kts 181°
2026-05-05 04:03 41.63871 12.04336 10426 ft 296 kts 185°
2026-05-05 04:03 41.61802 12.03730 10692 ft 315 kts 204°
2026-05-05 04:04 41.59936 12.02136 11287 ft 323 kts 218°
2026-05-05 04:04 41.58159 12.00258 12023 ft 327 kts 219°
2026-05-05 04:04 41.56977 11.99003 12532 ft 329 kts 219°
2026-05-05 04:04 41.55179 11.97095 13278 ft 331 kts 219°
2026-05-05 04:05 41.53367 11.95176 13999 ft 335 kts 219°
2026-05-05 04:05 41.50935 11.92607 14909 ft 339 kts 219°
2026-05-05 04:05 41.49079 11.90650 15578 ft 342 kts 219°
2026-05-05 04:05 41.47206 11.88670 16227 ft 344 kts 219°
2026-05-05 04:06 41.45321 11.86677 16863 ft 347 kts 219°
2026-05-05 04:06 41.44038 11.85323 17281 ft 349 kts 220°
2026-05-05 04:06 41.42121 11.83305 17873 ft 353 kts 219°
2026-05-05 04:06 41.40225 11.81212 18464 ft 355 kts 225°
2026-05-05 04:07 41.38651 11.78725 19020 ft 357 kts 237°
2026-05-05 04:07 41.37486 11.75806 19593 ft 359 kts 249°
2026-05-05 04:07 41.36635 11.72663 20181 ft 362 kts 250°
2026-05-05 04:07 41.35785 11.69502 20754 ft 364 kts 250°
2026-05-05 04:08 41.34922 11.66321 21321 ft 366 kts 250°
2026-05-05 04:08 41.34048 11.63122 21884 ft 369 kts 250°
2026-05-05 04:08 41.33168 11.59912 22419 ft 371 kts 251°
2026-05-05 04:08 41.32283 11.56676 22942 ft 373 kts 251°
2026-05-05 04:09 41.31391 11.53415 23445 ft 376 kts 251°
2026-05-05 04:09 41.30494 11.50142 23925 ft 378 kts 251°
2026-05-05 04:09 41.29596 11.46857 24390 ft 380 kts 251°
2026-05-05 04:09 41.28691 11.43544 24850 ft 381 kts 251°
2026-05-05 04:10 41.27782 11.40226 25308 ft 383 kts 251°
2026-05-05 04:10 41.26868 11.36898 25746 ft 384 kts 251°
2026-05-05 04:10 41.25950 11.33561 26159 ft 385 kts 251°
2026-05-05 04:10 41.25027 11.30215 26576 ft 386 kts 251°
2026-05-05 04:11 41.24100 11.26861 26985 ft 387 kts 251°
2026-05-05 04:11 41.23169 11.23497 27387 ft 388 kts 251°
2026-05-05 04:11 41.22250 11.20176 27765 ft 389 kts 251°
2026-05-05 04:11 41.21313 11.16794 28130 ft 390 kts 251°
2026-05-05 04:12 41.20376 11.13416 28497 ft 391 kts 250°
2026-05-05 04:12 41.19433 11.10024 28854 ft 392 kts 250°
2026-05-05 04:12 41.18486 11.06621 29181 ft 393 kts 250°
2026-05-05 04:12 41.17537 11.03216 29516 ft 394 kts 250°
2026-05-05 04:13 41.16586 10.99808 29826 ft 394 kts 250°
2026-05-05 04:13 41.15632 10.96389 30139 ft 395 kts 250°
2026-05-05 04:13 41.14676 10.92971 30425 ft 396 kts 250°
2026-05-05 04:13 41.13715 10.89536 30686 ft 397 kts 250°
2026-05-05 04:14 41.12749 10.86096 30924 ft 399 kts 250°
2026-05-05 04:14 41.11781 10.82644 31169 ft 400 kts 250°
2026-05-05 04:14 41.10811 10.79181 31428 ft 400 kts 250°
2026-05-05 04:14 41.09839 10.75725 31742 ft 399 kts 250°
2026-05-05 04:15 41.08868 10.72280 32056 ft 398 kts 250°
2026-05-05 04:15 41.07896 10.68847 32360 ft 397 kts 250°
2026-05-05 04:15 41.06929 10.65420 32662 ft 397 kts 250°
2026-05-05 04:15 41.05962 10.62002 32956 ft 396 kts 250°
2026-05-05 04:16 41.05007 10.58635 33248 ft 395 kts 250°
2026-05-05 04:16 41.04039 10.55235 33545 ft 394 kts 250°
2026-05-05 04:16 41.03075 10.51841 33833 ft 393 kts 250°
2026-05-05 04:16 41.02112 10.48451 34116 ft 393 kts 250°
2026-05-05 04:17 41.01149 10.45073 34396 ft 392 kts 250°
2026-05-05 04:17 41.00184 10.41693 34653 ft 392 kts 250°
2026-05-05 04:17 40.99275 10.38298 34888 ft 392 kts 255°
2026-05-05 04:17 40.98760 10.34760 35106 ft 392 kts 264°
2026-05-05 04:18 40.98578 10.31157 35321 ft 393 kts 265°
2026-05-05 04:18 40.98404 10.27550 35525 ft 393 kts 265°
2026-05-05 04:18 40.98227 10.23941 35737 ft 393 kts 265°
2026-05-05 04:18 40.98048 10.20337 35934 ft 393 kts 265°
2026-05-05 04:19 40.97867 10.16728 36119 ft 393 kts 265°
2026-05-05 04:19 40.97682 10.13114 36298 ft 393 kts 265°
2026-05-05 04:19 40.97498 10.09501 36477 ft 394 kts 265°
2026-05-05 04:19 40.97314 10.05889 36653 ft 394 kts 265°
2026-05-05 04:20 40.97132 10.02282 36869 ft 392 kts 265°
2026-05-05 04:20 40.96949 9.98688 36985 ft 390 kts 265°
2026-05-05 04:20 40.96579 9.91585 37008 ft 384 kts 264°
2026-05-05 04:21 40.96206 9.84552 37001 ft 383 kts 264°
2026-05-05 04:21 40.95837 9.77528 36999 ft 382 kts 264°
2026-05-05 04:22 40.95466 9.70553 36999 ft 382 kts 264°
2026-05-05 04:22 40.95083 9.63538 36999 ft 382 kts 264°
2026-05-05 04:23 40.94693 9.56519 37001 ft 383 kts 264°
2026-05-05 04:23 40.94305 9.49497 37002 ft 383 kts 264°
2026-05-05 04:24 40.93911 9.42476 37002 ft 383 kts 264°
2026-05-05 04:25 40.93308 9.31943 37001 ft 382 kts 264°
2026-05-05 04:25 40.92903 9.24936 36999 ft 382 kts 264°
2026-05-05 04:26 40.92493 9.17932 37000 ft 382 kts 264°
2026-05-05 04:26 40.92081 9.10925 37002 ft 382 kts 264°
2026-05-05 04:27 40.91665 9.03925 37003 ft 382 kts 264°
2026-05-05 04:27 40.91246 8.96919 37004 ft 382 kts 264°
2026-05-05 04:28 40.90823 8.89961 37007 ft 382 kts 264°
2026-05-05 04:28 40.90390 8.82960 37008 ft 382 kts 264°
2026-05-05 04:29 40.89957 8.75955 37018 ft 382 kts 264°
2026-05-05 04:29 40.89517 8.68955 37023 ft 382 kts 264°
2026-05-05 04:30 40.89077 8.61965 37024 ft 382 kts 264°
2026-05-05 04:30 40.88634 8.54980 37022 ft 381 kts 264°
2026-05-05 04:31 40.88183 8.47993 37023 ft 381 kts 264°
2026-05-05 04:31 40.87727 8.41013 37024 ft 381 kts 263°
2026-05-05 04:32 40.87266 8.34029 37025 ft 381 kts 263°
2026-05-05 04:32 40.86805 8.27082 37025 ft 381 kts 263°
2026-05-05 04:33 40.86338 8.20110 37024 ft 381 kts 263°
2026-05-05 04:33 40.85865 8.13140 37025 ft 381 kts 263°
2026-05-05 04:34 40.85947 8.06147 37025 ft 382 kts 271°
2026-05-05 04:34 40.86274 7.99137 37023 ft 382 kts 271°
2026-05-05 04:35 40.86713 7.92145 37024 ft 382 kts 272°
2026-05-05 04:35 40.87239 7.85145 37025 ft 383 kts 273°
2026-05-05 04:36 40.87751 7.78146 37025 ft 382 kts 272°
2026-05-05 04:36 40.88226 7.71151 37025 ft 382 kts 272°
2026-05-05 04:37 40.88686 7.64182 37026 ft 383 kts 272°
2026-05-05 04:37 40.89156 7.57177 37025 ft 383 kts 272°
2026-05-05 04:38 40.89615 7.50163 37028 ft 383 kts 272°
2026-05-05 04:38 40.90070 7.43145 37030 ft 383 kts 272°
2026-05-05 04:39 40.90524 7.36131 37028 ft 383 kts 272°
2026-05-05 04:39 40.90977 7.29110 37025 ft 383 kts 272°
2026-05-05 04:40 40.91424 7.22097 37024 ft 383 kts 272°
2026-05-05 04:40 40.91859 7.15125 37023 ft 383 kts 271°
2026-05-05 04:41 40.92288 7.08106 37022 ft 383 kts 271°
2026-05-05 04:41 40.92721 7.01092 37023 ft 383 kts 271°
2026-05-05 04:42 40.93153 6.94069 37033 ft 383 kts 271°
2026-05-05 04:42 40.93577 6.87050 37028 ft 383 kts 271°
2026-05-05 04:43 40.93998 6.80027 37025 ft 383 kts 271°
2026-05-05 04:43 40.94413 6.73003 37022 ft 383 kts 271°
2026-05-05 04:44 40.94824 6.65994 37019 ft 382 kts 271°
2026-05-05 04:44 40.95229 6.59025 37018 ft 382 kts 271°
2026-05-05 04:45 40.95632 6.52011 37017 ft 382 kts 271°
2026-05-05 04:45 40.96032 6.44988 37016 ft 382 kts 271°
2026-05-05 04:46 40.96426 6.37974 37013 ft 382 kts 271°
2026-05-05 04:46 40.96815 6.30965 37010 ft 382 kts 271°
2026-05-05 04:47 40.97201 6.23962 37005 ft 381 kts 271°
2026-05-05 04:47 40.97583 6.16960 36997 ft 381 kts 271°
2026-05-05 04:48 40.97955 6.09956 36990 ft 381 kts 271°
2026-05-05 04:48 40.98327 6.02955 36984 ft 381 kts 271°
2026-05-05 04:49 40.98695 5.95952 36983 ft 381 kts 271°
2026-05-05 04:49 40.99056 5.88949 36976 ft 381 kts 271°
2026-05-05 04:50 40.99410 5.81992 36972 ft 381 kts 271°
2026-05-05 04:50 40.99766 5.74988 36971 ft 381 kts 271°
2026-05-05 04:51 41.00116 5.67977 36970 ft 381 kts 271°
2026-05-05 04:51 41.00465 5.60976 36970 ft 381 kts 270°
2026-05-05 04:52 41.00810 5.53967 36971 ft 382 kts 270°
2026-05-05 04:52 41.01149 5.46946 36971 ft 382 kts 270°
2026-05-05 04:53 41.01416 5.41120 36971 ft 382 kts 270°
2026-05-05 04:53 41.01754 5.34097 36972 ft 382 kts 271°
2026-05-05 04:54 41.02194 5.25931 36973 ft 382 kts 271°
2026-05-05 04:54 41.02507 5.20045 36974 ft 383 kts 271°
2026-05-05 04:55 41.02869 5.13008 36976 ft 382 kts 271°
2026-05-05 04:55 41.03214 5.06027 36977 ft 382 kts 270°
2026-05-05 04:56 41.03566 4.98995 36976 ft 382 kts 270°
2026-05-05 04:56 41.03914 4.91969 36973 ft 383 kts 270°
2026-05-05 04:57 41.04260 4.84927 36972 ft 383 kts 270°
2026-05-05 04:57 41.04601 4.77894 36974 ft 383 kts 271°
2026-05-05 04:58 41.05183 4.70878 36971 ft 384 kts 274°
2026-05-05 04:58 41.05988 4.63870 36968 ft 385 kts 275°
2026-05-05 04:59 41.06813 4.56868 36952 ft 386 kts 275°
2026-05-05 04:59 41.07212 4.53298 36702 ft 396 kts 275°
2026-05-05 04:59 41.07606 4.49655 36453 ft 401 kts 275°
2026-05-05 04:59 41.07994 4.46001 36204 ft 400 kts 274°
2026-05-05 05:00 41.08380 4.42339 35787 ft 400 kts 274°
2026-05-05 05:00 41.08765 4.38681 34876 ft 398 kts 274°
2026-05-05 05:00 41.09144 4.35127 34098 ft 388 kts 274°
2026-05-05 05:00 41.09522 4.31612 33590 ft 372 kts 274°
2026-05-05 05:01 41.09882 4.28274 33054 ft 359 kts 274°
2026-05-05 05:01 41.10220 4.25086 32537 ft 351 kts 274°
2026-05-05 05:01 41.10554 4.21881 32014 ft 349 kts 274°
2026-05-05 05:01 41.10884 4.18690 31505 ft 350 kts 274°
2026-05-05 05:02 41.11216 4.15496 30987 ft 349 kts 274°
2026-05-05 05:02 41.11547 4.12316 30481 ft 348 kts 274°
2026-05-05 05:02 41.11876 4.09142 29976 ft 346 kts 274°
2026-05-05 05:02 41.12203 4.05984 29475 ft 345 kts 274°
2026-05-05 05:03 41.12529 4.02830 28978 ft 344 kts 274°
2026-05-05 05:03 41.12853 3.99692 28487 ft 343 kts 274°
2026-05-05 05:03 41.13174 3.96563 28004 ft 341 kts 274°
2026-05-05 05:03 41.13494 3.93456 27536 ft 339 kts 274°
2026-05-05 05:04 41.13810 3.90362 27071 ft 337 kts 274°
2026-05-05 05:04 41.14122 3.87285 26616 ft 335 kts 273°
2026-05-05 05:04 41.14433 3.84235 26181 ft 332 kts 274°
2026-05-05 05:04 41.14741 3.81205 25728 ft 330 kts 273°
2026-05-05 05:05 41.14914 3.78201 25294 ft 323 kts 264°
2026-05-05 05:05 41.14636 3.75286 24876 ft 317 kts 254°
2026-05-05 05:05 41.13907 3.72506 24628 ft 326 kts 244°
2026-05-05 05:05 41.12809 3.69847 24360 ft 331 kts 240°
2026-05-05 05:06 41.11672 3.67189 24086 ft 332 kts 240°
2026-05-05 05:06 41.10533 3.64527 23799 ft 331 kts 240°
2026-05-05 05:06 41.09401 3.61880 23526 ft 329 kts 240°
2026-05-05 05:06 41.08274 3.59242 23246 ft 328 kts 241°
2026-05-05 05:07 41.07152 3.56612 22976 ft 327 kts 241°
2026-05-05 05:07 41.06051 3.54028 22708 ft 326 kts 241°
2026-05-05 05:07 41.04934 3.51409 22432 ft 325 kts 241°
2026-05-05 05:07 41.03820 3.48807 22159 ft 324 kts 241°
2026-05-05 05:08 41.02707 3.46215 21888 ft 323 kts 241°
2026-05-05 05:08 41.01598 3.43636 21628 ft 321 kts 241°
2026-05-05 05:08 41.00492 3.41069 21350 ft 320 kts 241°
2026-05-05 05:08 40.99392 3.38516 21082 ft 319 kts 241°
2026-05-05 05:09 40.98293 3.35967 20807 ft 318 kts 241°
2026-05-05 05:09 40.97199 3.33425 20545 ft 317 kts 241°
2026-05-05 05:09 40.96110 3.30897 20279 ft 316 kts 241°
2026-05-05 05:09 40.95020 3.28375 20015 ft 315 kts 241°
2026-05-05 05:10 40.93934 3.25861 19748 ft 314 kts 241°
2026-05-05 05:10 40.92851 3.23352 19488 ft 313 kts 241°
2026-05-05 05:10 40.91773 3.20857 19226 ft 312 kts 241°
2026-05-05 05:10 40.90697 3.18370 18962 ft 311 kts 241°
2026-05-05 05:11 40.89623 3.15890 18699 ft 310 kts 241°
2026-05-05 05:11 40.88554 3.13427 18445 ft 309 kts 241°
2026-05-05 05:11 40.87487 3.10972 18187 ft 308 kts 241°
2026-05-05 05:11 40.86421 3.08523 17931 ft 307 kts 241°
2026-05-05 05:12 40.85357 3.06083 17671 ft 306 kts 241°
2026-05-05 05:12 40.84313 3.03683 17429 ft 305 kts 241°
2026-05-05 05:12 40.83256 3.01257 17171 ft 304 kts 241°
2026-05-05 05:12 40.82200 2.98838 16915 ft 304 kts 241°
2026-05-05 05:13 40.81148 2.96429 16663 ft 303 kts 241°
2026-05-05 05:13 40.80098 2.94022 16409 ft 302 kts 241°
2026-05-05 05:13 40.79313 2.91467 16153 ft 302 kts 256°
2026-05-05 05:13 40.79155 2.88711 15898 ft 304 kts 272°
2026-05-05 05:14 40.79646 2.85985 15539 ft 308 kts 289°
2026-05-05 05:14 40.80668 2.83480 15188 ft 312 kts 295°
2026-05-05 05:14 40.81754 2.81005 14848 ft 311 kts 295°
2026-05-05 05:14 40.82833 2.78539 14497 ft 310 kts 295°
2026-05-05 05:15 40.83907 2.76071 14156 ft 309 kts 295°
2026-05-05 05:15 40.84979 2.73613 13807 ft 308 kts 295°
2026-05-05 05:15 40.86047 2.71162 13471 ft 307 kts 295°
2026-05-05 05:15 40.87113 2.68717 13127 ft 307 kts 295°
2026-05-05 05:16 40.88176 2.66277 12788 ft 306 kts 295°
2026-05-05 05:16 40.89234 2.63842 12446 ft 305 kts 295°
2026-05-05 05:16 40.90277 2.61427 12150 ft 299 kts 295°
2026-05-05 05:16 40.91280 2.59122 11949 ft 280 kts 295°
2026-05-05 05:17 40.92238 2.56916 11522 ft 276 kts 295°
2026-05-05 05:17 40.93182 2.54735 11183 ft 273 kts 295°
2026-05-05 05:17 40.94121 2.52555 10877 ft 272 kts 295°
2026-05-05 05:17 40.95058 2.50385 10564 ft 271 kts 296°
2026-05-05 05:18 40.95982 2.48252 10274 ft 270 kts 296°
2026-05-05 05:18 40.96916 2.46094 10114 ft 270 kts 296°
2026-05-05 05:18 40.97857 2.43937 10004 ft 271 kts 297°
2026-05-05 05:18 40.98819 2.41784 9772 ft 271 kts 297°
2026-05-05 05:19 40.99756 2.39628 9484 ft 269 kts 296°
2026-05-05 05:19 41.00634 2.37448 9203 ft 267 kts 289°
2026-05-05 05:19 41.01205 2.35132 8902 ft 262 kts 283°
2026-05-05 05:19 41.01680 2.32816 8601 ft 258 kts 282°
2026-05-05 05:20 41.02136 2.30540 8312 ft 253 kts 282°
2026-05-05 05:20 41.02581 2.28305 8029 ft 248 kts 282°
2026-05-05 05:20 41.03016 2.26114 7740 ft 244 kts 282°
2026-05-05 05:20 41.03445 2.23959 7441 ft 240 kts 282°
2026-05-05 05:21 41.03868 2.21834 7130 ft 237 kts 282°
2026-05-05 05:21 41.04278 2.19754 6854 ft 235 kts 282°
2026-05-05 05:21 41.04695 2.17637 6552 ft 234 kts 282°
2026-05-05 05:21 41.05105 2.15557 6252 ft 233 kts 282°
2026-05-05 05:22 41.05507 2.13506 5964 ft 232 kts 282°
2026-05-05 05:22 41.05909 2.11438 5663 ft 231 kts 282°
2026-05-05 05:22 41.06309 2.09376 5367 ft 231 kts 282°
2026-05-05 05:22 41.06703 2.07324 5055 ft 228 kts 282°
2026-05-05 05:23 41.07102 2.05305 4774 ft 225 kts 287°
2026-05-05 05:23 41.07814 2.03463 4363 ft 229 kts 305°
2026-05-05 05:23 41.08979 2.02001 3919 ft 229 kts 326°
2026-05-05 05:23 41.10428 2.01171 3682 ft 227 kts 346°
2026-05-05 05:24 41.12002 2.01019 3449 ft 229 kts
2026-05-05 05:24 41.13531 2.01542 3172 ft 225 kts 19°
2026-05-05 05:24 41.15007 2.02216 2858 ft 225 kts 19°
2026-05-05 05:24 41.16479 2.02887 2556 ft 222 kts 19°
2026-05-05 05:25 41.17936 2.03549 2260 ft 220 kts 19°
2026-05-05 05:25 41.19340 2.04189 1972 ft 209 kts 18°
2026-05-05 05:25 41.20676 2.04797 1729 ft 196 kts 18°
2026-05-05 05:25 41.21923 2.05364 1453 ft 183 kts 17°
2026-05-05 05:26 41.23083 2.05891 1211 ft 168 kts 16°
2026-05-05 05:26 41.24136 2.06372 1019 ft 151 kts 16°
2026-05-05 05:26 41.25086 2.06804 811 ft 139 kts 16°
2026-05-05 05:26 41.25983 2.07211 634 ft 135 kts 16°
2026-05-05 05:27 41.26864 2.07614 454 ft 133 kts 17°
2026-05-05 05:27 41.27737 2.08011 295 ft 133 kts 17°
2026-05-05 05:27 41.29440 2.08784 20 ft 116 kts 18°
2026-05-05 05:28 41.30050 2.09061 18 ft 68 kts 18°
2026-05-05 05:28 41.30335 2.09192 20 ft 19 kts 19°
2026-05-05 05:28 41.30416 2.09230 20 ft 13 kts 20°
2026-05-05 05:28 41.30499 2.09271 21 ft 13 kts 20°
2026-05-05 05:29 41.30583 2.09271 21 ft 13 kts 331°
2026-05-05 05:29 41.30658 2.09188 18 ft 14 kts 319°
2026-05-05 05:29 41.30673 2.09101 21 ft 8 kts 215°
2026-05-05 05:29 41.30630 2.09065 18 ft 7 kts 201°
2026-05-05 05:30 41.30589 2.09046 18 ft 6 kts 199°
2026-05-05 05:30 41.30550 2.09028 18 ft 6 kts 199°
2026-05-05 05:30 41.30515 2.09012 18 ft 5 kts 199°
2026-05-05 05:30 41.30483 2.08997 20 ft 5 kts 199°
2026-05-05 05:31 41.30454 2.08984 18 ft 4 kts 199°
2026-05-05 05:31 41.30408 2.08954 19 ft 11 kts 224°
2026-05-05 05:31 41.30377 2.08868 17 ft 10 kts 246°
2026-05-05 05:31 41.30350 2.08787 19 ft 9 kts 246°
2026-05-05 05:32 41.30327 2.08718 19 ft 7 kts 246°
2026-05-05 05:32 41.30307 2.08660 17 ft 6 kts 245°
2026-05-05 05:32 41.30290 2.08611 17 ft 5 kts 245°
2026-05-05 05:32 41.30274 2.08564 18 ft 7 kts 245°
2026-05-05 05:33 41.30256 2.08511 18 ft 6 kts 245°
2026-05-05 05:33 41.30235 2.08448 19 ft 7 kts 246°
2026-05-05 05:33 41.30216 2.08391 19 ft 6 kts 245°
2026-05-05 05:33 41.30192 2.08321 18 ft 11 kts 245°
2026-05-05 05:34 41.30161 2.08234 18 ft 10 kts 245°
2026-05-05 05:34 41.30191 2.08177 18 ft 7 kts 345°
2026-05-05 05:34 41.30228 2.08159 19 ft 4 kts 337°
2026-05-05 05:34 41.30249 2.08148 20 ft 3 kts 341°
2026-05-05 05:35 41.30271 2.08154 23 ft 4 kts 22°
2026-05-05 05:35 41.30300 2.08172 21 ft 5 kts 26°
2026-05-05 05:35 41.30324 2.08188 21 ft 0 kts 26°
2026-05-05 05:41 41.30325 2.08188 21 ft 0 kts 26°